Year,Month,Day,Hour,Minute,Value (Times are PST for windgust in km/hr)
2020,11,30,00,00,6.40
2020,11,30,00,01,8.10
2020,11,30,00,02,8.10
2020,11,30,00,03,6.40
2020,11,30,00,04,6.40
2020,11,30,00,05,6.40
2020,11,30,00,06,4.80
2020,11,30,00,07,3.20
2020,11,30,00,08,3.20
2020,11,30,00,14,4.80
2020,11,30,00,15,6.40
2020,11,30,00,16,6.40
2020,11,30,00,17,4.80
2020,11,30,00,18,6.40
2020,11,30,00,19,4.80
2020,11,30,00,23,3.20
2020,11,30,00,24,3.20
2020,11,30,00,27,8.10
2020,11,30,00,28,8.10
2020,11,30,00,29,9.60
2020,11,30,00,30,9.60
2020,11,30,00,31,8.10
2020,11,30,00,32,8.10
2020,11,30,00,33,6.40
2020,11,30,00,34,6.40
2020,11,30,00,35,6.40
2020,11,30,00,36,8.10
2020,11,30,00,37,11.30
2020,11,30,00,38,9.60
2020,11,30,00,39,9.60
2020,11,30,00,40,11.30
2020,11,30,00,41,11.30
2020,11,30,00,42,11.30
2020,11,30,00,43,9.60
2020,11,30,00,44,8.10
2020,11,30,00,45,4.80
2020,11,30,00,46,4.80
2020,11,30,00,47,4.80
2020,11,30,00,48,4.80
2020,11,30,00,49,4.80
2020,11,30,00,50,4.80
2020,11,30,00,51,4.80
2020,11,30,00,52,6.40
2020,11,30,00,53,4.80
2020,11,30,00,54,4.80
2020,11,30,00,55,4.80
2020,11,30,00,56,1.60
2020,11,30,01,05,1.60
2020,11,30,01,38,6.40
2020,11,30,01,39,1.60
2020,11,30,02,01,1.60
2020,11,30,02,07,4.80
2020,11,30,03,12,3.20
2020,11,30,03,13,3.20
2020,11,30,03,14,3.20
2020,11,30,03,17,3.20
2020,11,30,03,18,3.20
2020,11,30,03,19,1.60
2020,11,30,03,21,6.40
2020,11,30,03,22,3.20
2020,11,30,03,24,3.20
2020,11,30,03,25,6.40
2020,11,30,03,26,8.10
2020,11,30,03,27,1.60
2020,11,30,03,29,8.10
2020,11,30,03,30,6.40
2020,11,30,03,33,11.30
2020,11,30,03,34,3.20
2020,11,30,03,37,1.60
2020,11,30,05,34,4.80
2020,11,30,05,56,6.40
2020,11,30,05,57,6.40
2020,11,30,05,58,25.70
2020,11,30,05,59,20.90
2020,11,30,06,00,11.30
2020,11,30,06,01,11.30
2020,11,30,06,02,12.90
2020,11,30,06,03,16.10
2020,11,30,06,04,9.60
2020,11,30,06,05,4.80
2020,11,30,06,18,4.80
2020,11,30,06,19,3.20
2020,11,30,06,21,1.60
2020,11,30,06,27,8.10
2020,11,30,06,28,12.90
2020,11,30,06,29,27.40
2020,11,30,06,30,17.70
2020,11,30,06,31,32.20
2020,11,30,06,32,30.60
2020,11,30,06,33,30.60
2020,11,30,06,34,22.50
2020,11,30,06,35,30.60
2020,11,30,06,36,16.10
2020,11,30,06,37,25.70
2020,11,30,06,38,22.50
2020,11,30,06,39,22.50
2020,11,30,06,40,14.50
2020,11,30,06,41,19.30
2020,11,30,06,42,20.90
2020,11,30,06,43,25.70
2020,11,30,06,44,24.20
2020,11,30,06,45,22.50
2020,11,30,06,46,25.70
2020,11,30,06,47,29.00
2020,11,30,06,48,41.80
2020,11,30,06,49,24.20
2020,11,30,06,50,19.30
2020,11,30,06,51,22.50
2020,11,30,06,52,22.50
2020,11,30,06,53,29.00
2020,11,30,06,54,40.20
2020,11,30,06,55,27.40
2020,11,30,06,56,29.00
2020,11,30,06,57,25.70
2020,11,30,06,58,22.50
2020,11,30,06,59,29.00
2020,11,30,07,00,32.20
2020,11,30,07,01,20.90
2020,11,30,07,02,19.30
2020,11,30,07,03,29.00
2020,11,30,07,04,19.30
2020,11,30,07,05,25.70
2020,11,30,07,06,49.90
2020,11,30,07,07,22.50
2020,11,30,07,08,35.40
2020,11,30,07,09,22.50
2020,11,30,07,10,57.90
2020,11,30,07,11,29.00
2020,11,30,07,12,38.60
2020,11,30,07,13,22.50
2020,11,30,07,14,45.10
2020,11,30,07,15,22.50
2020,11,30,07,16,9.60
2020,11,30,07,17,16.10
2020,11,30,07,18,46.70
2020,11,30,07,19,22.50
2020,11,30,07,20,30.60
2020,11,30,07,21,27.40
2020,11,30,07,22,30.60
2020,11,30,07,23,48.30
2020,11,30,07,24,24.20
2020,11,30,07,25,24.20
2020,11,30,07,26,24.20
2020,11,30,07,27,19.30
2020,11,30,07,28,24.20
2020,11,30,07,29,22.50
2020,11,30,07,30,20.90
2020,11,30,07,31,27.40
2020,11,30,07,32,25.70
2020,11,30,07,33,53.10
2020,11,30,07,34,30.60
2020,11,30,07,35,17.70
2020,11,30,07,36,30.60
2020,11,30,07,37,46.70
2020,11,30,07,38,17.70
2020,11,30,07,39,24.20
2020,11,30,07,40,25.70
2020,11,30,07,41,22.50
2020,11,30,07,42,25.70
2020,11,30,07,43,29.00
2020,11,30,07,44,40.20
2020,11,30,07,45,33.80
2020,11,30,07,46,20.90
2020,11,30,07,47,37.00
2020,11,30,07,48,19.30
2020,11,30,07,49,27.40
2020,11,30,07,50,40.20
2020,11,30,07,51,16.10
2020,11,30,07,52,17.70
2020,11,30,07,53,17.70
2020,11,30,07,54,22.50
2020,11,30,07,55,33.80
2020,11,30,07,56,19.30
2020,11,30,07,57,11.30
2020,11,30,07,58,33.80
2020,11,30,07,59,29.00
2020,11,30,08,00,38.60
2020,11,30,08,01,14.50
2020,11,30,08,02,25.70
2020,11,30,08,03,37.00
2020,11,30,08,04,12.90
2020,11,30,08,05,43.50
2020,11,30,08,06,33.80
2020,11,30,08,07,29.00
2020,11,30,08,08,32.20
2020,11,30,08,09,45.10
2020,11,30,08,10,29.00
2020,11,30,08,11,24.20
2020,11,30,08,12,22.50
2020,11,30,08,13,30.60
2020,11,30,08,14,22.50
2020,11,30,08,15,30.60
2020,11,30,08,16,45.10
2020,11,30,08,17,46.70
2020,11,30,08,18,46.70
2020,11,30,08,19,12.90
2020,11,30,08,20,14.50
2020,11,30,08,21,30.60
2020,11,30,08,22,22.50
2020,11,30,08,23,12.90
2020,11,30,08,24,25.70
2020,11,30,08,25,22.50
2020,11,30,08,26,48.30
2020,11,30,08,27,38.60
2020,11,30,08,28,29.00
2020,11,30,08,29,19.30
2020,11,30,08,30,19.30
2020,11,30,08,31,27.40
2020,11,30,08,32,27.40
2020,11,30,08,33,29.00
2020,11,30,08,34,56.30
2020,11,30,08,35,30.60
2020,11,30,08,36,40.20
2020,11,30,08,37,38.60
2020,11,30,08,38,27.40
2020,11,30,08,39,46.70
2020,11,30,08,40,27.40
2020,11,30,08,41,48.30
2020,11,30,08,42,22.50
2020,11,30,08,43,32.20
2020,11,30,08,44,48.30
2020,11,30,08,45,57.90
2020,11,30,08,46,25.70
2020,11,30,08,47,51.50
2020,11,30,08,48,29.00
2020,11,30,08,49,67.60
2020,11,30,08,50,53.10
2020,11,30,08,51,41.80
2020,11,30,08,52,30.60
2020,11,30,08,53,38.60
2020,11,30,08,54,33.80
2020,11,30,11,16,6.40
2020,11,30,11,17,16.10
2020,11,30,11,18,11.30
2020,11,30,11,19,19.30
2020,11,30,11,20,22.50
2020,11,30,11,21,33.80
2020,11,30,11,22,22.50
2020,11,30,11,23,12.90
2020,11,30,11,24,20.90
2020,11,30,11,25,32.20
2020,11,30,11,26,19.30
2020,11,30,11,27,33.80
2020,11,30,11,28,24.20
2020,11,30,11,29,19.30
2020,11,30,11,30,24.20
2020,11,30,11,31,19.30
2020,11,30,11,32,30.60
2020,11,30,11,33,27.40
2020,11,30,11,34,17.70
2020,11,30,11,35,19.30
2020,11,30,11,36,40.20
2020,11,30,11,37,12.90
2020,11,30,11,38,12.90
2020,11,30,11,39,17.70
2020,11,30,11,40,17.70
2020,11,30,11,41,16.10
2020,11,30,11,42,17.70
2020,11,30,11,43,14.50
2020,11,30,11,44,22.50
2020,11,30,11,45,24.20
2020,11,30,11,46,17.70
2020,11,30,11,47,24.20
2020,11,30,11,48,30.60
2020,11,30,11,49,24.20
2020,11,30,11,50,19.30
2020,11,30,11,51,25.70
2020,11,30,11,52,19.30
2020,11,30,11,53,20.90
2020,11,30,11,54,20.90
2020,11,30,11,55,16.10
2020,11,30,11,56,30.60
2020,11,30,11,57,41.80
2020,11,30,11,58,22.50
2020,11,30,11,59,12.90
2020,11,30,12,00,20.90
2020,11,30,12,01,17.70
2020,11,30,12,02,24.20
2020,11,30,12,03,35.40
2020,11,30,12,04,17.70
2020,11,30,12,05,12.90
2020,11,30,12,06,9.60
2020,11,30,12,07,17.70
2020,11,30,12,08,29.00
2020,11,30,12,09,24.20
2020,11,30,12,10,12.90
2020,11,30,12,11,22.50
2020,11,30,12,12,33.80
2020,11,30,12,13,51.50
2020,11,30,12,14,25.70
2020,11,30,12,15,32.20
2020,11,30,12,16,37.00
2020,11,30,12,17,19.30
2020,11,30,12,18,33.80
2020,11,30,12,19,46.70
2020,11,30,12,20,30.60
2020,11,30,12,21,25.70
2020,11,30,12,22,25.70
2020,11,30,12,23,48.30
2020,11,30,12,24,22.50
2020,11,30,12,25,46.70
2020,11,30,12,26,20.90
2020,11,30,12,27,29.00
2020,11,30,12,28,38.60
2020,11,30,12,29,24.20
2020,11,30,12,30,29.00
2020,11,30,12,31,30.60
2020,11,30,12,32,33.80
2020,11,30,12,33,48.30
2020,11,30,12,34,22.50
2020,11,30,12,35,25.70
2020,11,30,12,36,35.40
2020,11,30,12,37,29.00
2020,11,30,12,38,25.70
2020,11,30,12,39,22.50
2020,11,30,12,40,25.70
2020,11,30,12,41,27.40
2020,11,30,12,42,29.00
2020,11,30,12,43,32.20
2020,11,30,12,44,40.20
2020,11,30,12,45,35.40
2020,11,30,12,46,24.20
2020,11,30,12,47,32.20
2020,11,30,12,48,25.70
2020,11,30,12,49,25.70
2020,11,30,12,50,24.20
2020,11,30,12,51,37.00
2020,11,30,12,52,20.90
2020,11,30,12,53,29.00
2020,11,30,12,54,25.70
2020,11,30,12,55,29.00
2020,11,30,12,56,35.40
2020,11,30,12,57,30.60
2020,11,30,12,58,12.90
2020,11,30,12,59,38.60
2020,11,30,13,00,32.20
2020,11,30,13,01,29.00
2020,11,30,13,02,33.80
2020,11,30,13,03,45.10
2020,11,30,13,04,24.20
2020,11,30,13,05,27.40
2020,11,30,13,06,19.30
2020,11,30,13,07,27.40
2020,11,30,13,08,25.70
2020,11,30,13,09,17.70
2020,11,30,13,10,25.70
2020,11,30,13,11,35.40
2020,11,30,13,12,20.90
2020,11,30,13,13,20.90
2020,11,30,13,14,24.20
2020,11,30,13,15,24.20
2020,11,30,13,16,41.80
2020,11,30,13,17,35.40
2020,11,30,13,18,29.00
2020,11,30,13,19,29.00
2020,11,30,13,20,9.60
2020,11,30,13,21,30.60
2020,11,30,13,22,38.60
2020,11,30,13,23,33.80
2020,11,30,13,24,37.00
2020,11,30,13,25,48.30
2020,11,30,13,26,51.50
2020,11,30,13,27,49.90
2020,11,30,13,28,30.60
2020,11,30,13,29,27.40
2020,11,30,13,30,38.60
2020,11,30,13,31,32.20
2020,11,30,13,32,25.70
2020,11,30,13,33,30.60
2020,11,30,13,34,35.40
2020,11,30,13,35,37.00
2020,11,30,13,36,33.80
2020,11,30,13,37,48.30
2020,11,30,13,38,37.00
2020,11,30,13,39,25.70
2020,11,30,13,40,22.50
2020,11,30,13,41,30.60
2020,11,30,13,42,33.80
2020,11,30,13,43,19.30
2020,11,30,13,44,41.80
2020,11,30,13,45,41.80
2020,11,30,13,46,35.40
2020,11,30,13,47,41.80
2020,11,30,13,48,33.80
2020,11,30,13,49,38.60
2020,11,30,13,50,32.20
2020,11,30,13,51,30.60
2020,11,30,13,52,33.80
2020,11,30,13,53,32.20
2020,11,30,13,54,40.20
2020,11,30,13,55,40.20
2020,11,30,13,56,24.20
2020,11,30,13,57,29.00
2020,11,30,13,58,27.40
2020,11,30,13,59,17.70
2020,11,30,14,00,29.00
2020,11,30,14,01,16.10
2020,11,30,14,02,22.50
2020,11,30,14,03,12.90
2020,11,30,14,04,22.50
2020,11,30,14,05,17.70
2020,11,30,14,06,20.90
2020,11,30,14,07,32.20
2020,11,30,14,08,25.70
2020,11,30,14,09,16.10
2020,11,30,14,10,35.40
2020,11,30,14,11,8.10
2020,11,30,14,12,20.90
2020,11,30,14,13,24.20
2020,11,30,14,14,29.00
2020,11,30,14,15,16.10
2020,11,30,14,16,24.20
2020,11,30,14,17,11.30
2020,11,30,14,18,29.00
2020,11,30,14,19,24.20
2020,11,30,14,20,35.40
2020,11,30,14,21,25.70
2020,11,30,14,22,29.00
2020,11,30,14,23,16.10
2020,11,30,14,24,12.90
2020,11,30,14,25,22.50
2020,11,30,14,26,24.20
2020,11,30,14,27,19.30
2020,11,30,14,28,43.50
2020,11,30,14,29,27.40
2020,11,30,14,30,40.20
2020,11,30,14,31,35.40
2020,11,30,14,32,25.70
2020,11,30,14,33,30.60
2020,11,30,14,34,29.00
2020,11,30,14,35,20.90
2020,11,30,14,36,19.30
2020,11,30,14,37,41.80
2020,11,30,14,38,33.80
2020,11,30,14,39,29.00
2020,11,30,14,40,22.50
2020,11,30,14,41,30.60
2020,11,30,14,42,41.80
2020,11,30,14,43,35.40
2020,11,30,14,44,37.00
2020,11,30,14,45,32.20
2020,11,30,14,46,38.60
2020,11,30,14,47,29.00
2020,11,30,14,48,22.50
2020,11,30,14,49,22.50
2020,11,30,14,50,25.70
2020,11,30,14,51,20.90
2020,11,30,14,52,30.60
2020,11,30,14,53,29.00
2020,11,30,14,54,32.20
2020,11,30,14,55,19.30
2020,11,30,14,56,17.70
2020,11,30,14,57,22.50
2020,11,30,14,58,35.40
2020,11,30,14,59,29.00
2020,11,30,15,00,30.60
2020,11,30,15,01,14.50
2020,11,30,15,02,24.20
2020,11,30,15,03,24.20
2020,11,30,15,04,9.60
2020,11,30,15,05,12.90
2020,11,30,15,06,19.30
2020,11,30,15,07,17.70
2020,11,30,15,08,17.70
2020,11,30,15,09,24.20
2020,11,30,15,10,24.20
2020,11,30,15,11,12.90
2020,11,30,15,12,19.30
2020,11,30,15,13,12.90
2020,11,30,15,14,16.10
2020,11,30,15,15,8.10
2020,11,30,15,16,11.30
2020,11,30,15,17,20.90
2020,11,30,15,18,19.30
2020,11,30,15,19,37.00
2020,11,30,15,20,27.40
2020,11,30,15,21,35.40
2020,11,30,15,22,16.10
2020,11,30,15,23,22.50
2020,11,30,15,24,30.60
2020,11,30,15,25,20.90
2020,11,30,15,26,19.30
2020,11,30,15,27,29.00
2020,11,30,15,28,20.90
2020,11,30,15,29,29.00
2020,11,30,15,30,17.70
2020,11,30,15,31,12.90
2020,11,30,15,32,19.30
2020,11,30,15,33,17.70
2020,11,30,15,34,27.40
2020,11,30,15,35,20.90
2020,11,30,15,36,32.20
2020,11,30,15,37,22.50
2020,11,30,15,38,16.10
2020,11,30,15,39,32.20
2020,11,30,15,40,30.60
2020,11,30,15,41,27.40
2020,11,30,15,42,14.50
2020,11,30,15,43,30.60
2020,11,30,15,44,35.40
2020,11,30,15,45,32.20
2020,11,30,15,46,20.90
2020,11,30,15,47,29.00
2020,11,30,15,48,20.90
2020,11,30,15,49,30.60
2020,11,30,15,50,19.30
2020,11,30,15,51,19.30
2020,11,30,15,52,33.80
2020,11,30,15,53,35.40
2020,11,30,15,54,32.20
2020,11,30,15,55,32.20
2020,11,30,15,56,38.60
2020,11,30,15,57,30.60
2020,11,30,15,58,29.00
2020,11,30,15,59,29.00
2020,11,30,16,00,20.90
2020,11,30,16,01,22.50
2020,11,30,16,02,24.20
2020,11,30,16,03,22.50
2020,11,30,16,04,14.50
2020,11,30,16,05,14.50
2020,11,30,16,06,22.50
2020,11,30,16,07,24.20
2020,11,30,16,08,24.20
2020,11,30,16,09,35.40
2020,11,30,16,10,19.30
2020,11,30,16,11,14.50
2020,11,30,16,12,14.50
2020,11,30,16,13,29.00
2020,11,30,16,14,20.90
2020,11,30,16,15,19.30
2020,11,30,16,16,20.90
2020,11,30,16,17,22.50
2020,11,30,16,18,16.10
2020,11,30,16,19,20.90
2020,11,30,16,20,17.70
2020,11,30,16,21,17.70
2020,11,30,16,22,12.90
2020,11,30,16,23,37.00
2020,11,30,16,24,17.70
2020,11,30,16,25,22.50
2020,11,30,16,26,12.90
2020,11,30,16,27,8.10
2020,11,30,16,28,14.50
2020,11,30,16,29,12.90
2020,11,30,16,30,9.60
2020,11,30,16,31,3.20
2020,11,30,16,32,6.40
2020,11,30,16,33,14.50
2020,11,30,16,34,8.10
2020,11,30,16,35,8.10
2020,11,30,16,36,9.60
2020,11,30,16,37,9.60
2020,11,30,16,38,17.70
2020,11,30,16,39,12.90
2020,11,30,16,40,3.20
2020,11,30,16,41,8.10
2020,11,30,16,42,4.80
2020,11,30,16,43,3.20
2020,11,30,16,44,3.20
2020,11,30,16,45,1.60
2020,11,30,16,46,3.20
2020,11,30,16,47,3.20
2020,11,30,16,48,3.20
2020,11,30,16,49,6.40
2020,11,30,16,50,6.40
2020,11,30,16,51,11.30
2020,11,30,16,52,3.20
2020,11,30,16,53,3.20
2020,11,30,16,54,6.40
2020,11,30,16,56,1.60
2020,11,30,16,57,3.20
2020,11,30,16,58,6.40
2020,11,30,16,59,6.40
2020,11,30,17,00,8.10
2020,11,30,17,01,6.40
2020,11,30,17,02,14.50
2020,11,30,17,03,9.60
2020,11,30,17,04,20.90
2020,11,30,17,05,20.90
2020,11,30,17,06,20.90
2020,11,30,17,07,14.50
2020,11,30,17,08,14.50
2020,11,30,17,09,12.90
2020,11,30,17,10,22.50
2020,11,30,17,11,9.60
2020,11,30,17,12,9.60
2020,11,30,17,13,9.60
2020,11,30,17,14,12.90
2020,11,30,17,15,25.70
2020,11,30,17,16,14.50
2020,11,30,17,17,8.10
2020,11,30,17,18,11.30
2020,11,30,17,19,1.60
2020,11,30,17,20,25.70
2020,11,30,17,21,24.20
2020,11,30,17,22,9.60
2020,11,30,17,23,9.60
2020,11,30,17,24,6.40
2020,11,30,17,26,11.30
2020,11,30,17,27,3.20
2020,11,30,17,28,14.50
2020,11,30,17,29,14.50
2020,11,30,17,30,4.80
2020,11,30,17,31,14.50
2020,11,30,17,32,14.50
2020,11,30,17,33,11.30
2020,11,30,17,34,17.70
2020,11,30,17,35,19.30
2020,11,30,17,36,6.40
2020,11,30,17,37,4.80
2020,11,30,17,38,4.80
2020,11,30,17,39,6.40
2020,11,30,17,40,9.60
2020,11,30,17,41,9.60
2020,11,30,17,42,12.90
2020,11,30,17,43,6.40
2020,11,30,17,44,14.50
2020,11,30,17,45,8.10
2020,11,30,17,46,8.10
2020,11,30,17,47,8.10
2020,11,30,17,48,9.60
2020,11,30,17,49,8.10
2020,11,30,17,50,8.10
2020,11,30,17,51,6.40
2020,11,30,17,52,3.20
2020,11,30,17,53,6.40
2020,11,30,17,54,8.10
2020,11,30,17,55,11.30
2020,11,30,17,56,8.10
2020,11,30,17,57,1.60
2020,11,30,17,58,14.50
2020,11,30,17,59,6.40
2020,11,30,18,00,6.40
2020,11,30,18,01,6.40
2020,11,30,18,02,3.20
2020,11,30,18,04,8.10
2020,11,30,18,05,6.40
2020,11,30,18,07,6.40
2020,11,30,18,08,6.40
2020,11,30,18,09,3.20
2020,11,30,18,10,4.80
2020,11,30,18,11,6.40
2020,11,30,18,12,9.60
2020,11,30,18,13,9.60
2020,11,30,18,14,8.10
2020,11,30,18,15,8.10
2020,11,30,18,16,6.40
2020,11,30,18,17,3.20
2020,11,30,18,18,14.50
2020,11,30,18,19,8.10
2020,11,30,18,20,11.30
2020,11,30,18,21,8.10
2020,11,30,18,22,6.40
2020,11,30,18,23,3.20
2020,11,30,18,24,8.10
2020,11,30,18,25,11.30
2020,11,30,18,26,6.40
2020,11,30,18,27,9.60
2020,11,30,18,29,8.10
2020,11,30,18,30,1.60
2020,11,30,18,32,1.60
2020,11,30,18,33,9.60
2020,11,30,18,34,3.20
2020,11,30,18,37,1.60
2020,11,30,18,39,1.60
2020,11,30,18,40,1.60
2020,11,30,18,41,8.10
2020,11,30,18,42,11.30
2020,11,30,18,43,9.60
2020,11,30,18,44,6.40
2020,11,30,18,45,8.10
2020,11,30,18,46,6.40
2020,11,30,18,47,8.10
2020,11,30,18,48,12.90
2020,11,30,18,49,17.70
2020,11,30,18,50,11.30
2020,11,30,18,51,8.10
2020,11,30,18,52,9.60
2020,11,30,18,53,11.30
2020,11,30,18,54,14.50
2020,11,30,18,55,12.90
2020,11,30,18,56,12.90
2020,11,30,18,57,9.60
2020,11,30,18,58,11.30
2020,11,30,18,59,8.10
2020,11,30,19,00,3.20
2020,11,30,19,01,11.30
2020,11,30,19,02,3.20
2020,11,30,19,03,3.20
2020,11,30,19,05,1.60
2020,11,30,19,06,9.60
2020,11,30,19,07,9.60
2020,11,30,19,08,3.20
2020,11,30,19,09,3.20
2020,11,30,19,10,8.10
2020,11,30,19,11,8.10
2020,11,30,19,12,11.30
2020,11,30,19,13,8.10
2020,11,30,19,14,3.20
2020,11,30,19,15,3.20
2020,11,30,19,16,6.40
2020,11,30,19,17,6.40
2020,11,30,19,18,9.60
2020,11,30,19,19,12.90
2020,11,30,19,20,11.30
2020,11,30,19,21,1.60
2020,11,30,19,22,8.10
2020,11,30,19,24,11.30
2020,11,30,19,25,6.40
2020,11,30,19,26,1.60
2020,11,30,19,27,1.60
2020,11,30,19,28,9.60
2020,11,30,19,29,3.20
2020,11,30,19,30,9.60
2020,11,30,19,31,8.10
2020,11,30,19,32,14.50
2020,11,30,19,33,11.30
2020,11,30,19,34,6.40
2020,11,30,19,35,8.10
2020,11,30,19,36,8.10
2020,11,30,19,37,11.30
2020,11,30,19,38,17.70
2020,11,30,19,39,11.30
2020,11,30,19,40,11.30
2020,11,30,19,41,9.60
2020,11,30,19,42,17.70
2020,11,30,19,43,3.20
2020,11,30,19,44,9.60
2020,11,30,19,45,9.60
2020,11,30,19,46,9.60
2020,11,30,19,48,8.10
2020,11,30,19,49,3.20
2020,11,30,19,50,8.10
2020,11,30,19,51,9.60
2020,11,30,19,52,11.30
2020,11,30,19,53,3.20
2020,11,30,19,54,11.30
2020,11,30,19,55,12.90
2020,11,30,19,56,8.10
2020,11,30,19,57,6.40
2020,11,30,19,59,8.10
2020,11,30,20,00,6.40
2020,11,30,20,01,6.40
2020,11,30,20,02,6.40
2020,11,30,20,03,3.20
2020,11,30,20,04,6.40
2020,11,30,20,05,3.20
2020,11,30,20,06,1.60
2020,11,30,20,07,6.40
2020,11,30,20,08,12.90
2020,11,30,20,09,3.20
2020,11,30,20,11,8.10
2020,11,30,20,12,11.30
2020,11,30,20,13,3.20
2020,11,30,20,21,8.10
2020,11,30,20,22,1.60
2020,11,30,20,24,11.30
2020,11,30,20,27,6.40
2020,11,30,20,30,1.60
